owner,sensor,date,latitude,longitude,vertical_datum,wind_speed,wind_to_direction,wind_speed_of_gust,qcFlag 
TABS,ioos:station:wmo:42045:1,2017-08-24T09:30:00Z,26.2168,-96.4998,4.0,0.0,225.0,0.0,'11111222,11111222,11111222' 
TABS,ioos:station:wmo:42045:1,2017-08-24T10:00:00Z,26.2168,-96.4998,4.0,0.0,270.0,0.0,'11111222,11111222,11111222' 
TABS,ioos:station:wmo:42045:1,2017-08-24T10:30:00Z,26.2168,-96.4998,4.0,0.0,225.0,0.0,'11111222,11111222,11111222' 
TABS,ioos:station:wmo:42045:1,2017-08-24T11:00:00Z,26.2168,-96.4998,4.0,0.0,45.0,0.1,'11111222,11111222,11111222' 
TABS,ioos:station:wmo:42045:1,2017-08-24T11:30:00Z,26.2168,-96.4998,4.0,0.0,90.0,0.1,'11111222,11111222,11111222' 
TABS,ioos:station:wmo:42045:1,2017-08-24T12:00:00Z,26.2168,-96.4998,4.0,0.0,135.0,0.0,'11111222,11111222,11111222' 
TABS,ioos:station:wmo:42045:1,2017-08-24T12:30:00Z,26.2168,-96.4998,4.0,1.8,347.0,3.1,'11111222,11111222,11111222' 
TABS,ioos:station:wmo:42045:1,2017-08-24T13:00:00Z,26.2168,-96.4998,4.0,4.208622102,103.0460275,4.78,'11111222,11111222,11111222' 
TABS,ioos:station:wmo:42045:1,2017-08-24T13:30:00Z,26.2168,-96.4998,4.0,4.482164656,85.77735875,5.27,'11111222,11111222,11111222' 
TABS,ioos:station:wmo:42045:1,2017-08-24T14:00:00Z,26.2168,-96.4998,4.0,4.620995564,84.53574905,5.58,'11111222,11111222,11111222' 
TABS,ioos:station:wmo:42045:1,2017-08-24T14:30:00Z,26.2168,-96.4998,4.0,5.523015481,75.20852877,6.83,'11111222,11111222,11111222' 
TABS,ioos:station:wmo:42045:1,2017-08-24T15:00:00Z,26.2168,-96.4998,4.0,5.577741478,78.20617698,6.69,'11111222,11111222,11111222' 
TABS,ioos:station:wmo:42045:1,2017-08-24T15:30:00Z,26.2168,-96.4998,4.0,5.818212784,85.46493362,6.82,'11111222,11111222,11111222' 
TABS,ioos:station:wmo:42045:1,2017-08-24T16:00:00Z,26.2168,-96.4998,4.0,5.986551595,87.31879777,6.95,'11111222,11111222,11111222' 
TABS,ioos:station:wmo:42045:1,2017-08-24T16:30:00Z,26.2168,-96.4998,4.0,6.344588245,86.1134281,7.09,'11111222,11111222,11111222' 
TABS,ioos:station:wmo:42045:1,2017-08-24T17:00:00Z,26.2168,-96.4998,4.0,9.568829605,107.0150644,12.14,'11111222,11111222,11111222' 
TABS,ioos:station:wmo:42045:1,2017-08-24T17:30:00Z,26.2168,-96.4998,4.0,7.805741477,78.17143512,9.07,'11111222,11111222,11111222' 
TABS,ioos:station:wmo:42045:1,2017-08-24T18:00:00Z,26.2168,-96.4998,4.0,7.254309064,75.71434179,9.14,'11111222,11111222,11111222' 
TABS,ioos:station:wmo:42045:1,2017-08-24T18:30:00Z,26.2168,-96.4998,4.0,8.450591695,81.15034131,10.23,'11111222,11111222,11111222' 
TABS,ioos:station:wmo:42045:1,2017-08-24T19:00:00Z,26.2168,-96.4998,4.0,7.472382485,93.29933467,9.03,'11111222,11111222,11111222' 
TABS,ioos:station:wmo:42045:1,2017-08-24T19:30:00Z,26.2168,-96.4998,4.0,8.396010958,117.7557183,11.02,'11111222,11111222,11111222' 
TABS,ioos:station:wmo:42045:1,2017-08-24T20:00:00Z,26.2168,-96.4998,4.0,6.572800012,99.10444874,8.5,'11111222,11111222,11111222' 
TABS,ioos:station:wmo:42045:1,2017-08-24T20:30:00Z,26.2168,-96.4998,4.0,4.662295572,70.32100125,5.85,'11111222,11111222,11111222' 
TABS,ioos:station:wmo:42045:1,2017-08-24T21:00:00Z,26.2168,-96.4998,4.0,5.385471196,71.93475166,6.56,'11111222,11111222,11111222' 
TABS,ioos:station:wmo:42045:1,2017-08-24T21:30:00Z,26.2168,-96.4998,4.0,6.809478688,74.75925536,7.93,'11111222,11111222,11111222' 
TABS,ioos:station:wmo:42045:1,2017-08-24T22:00:00Z,26.2168,-96.4998,4.0,7.494964977,77.59517597,8.89,'11111222,11111222,11111222' 
TABS,ioos:station:wmo:42045:1,2017-08-24T22:30:00Z,26.2168,-96.4998,4.0,7.29214646,82.51398901,9.05,'11111222,11111222,11111222' 
TABS,ioos:station:wmo:42045:1,2017-08-24T23:00:00Z,26.2168,-96.4998,4.0,7.708761249,80.81831745,9.93,'11111222,11111222,11111222' 
TABS,ioos:station:wmo:42045:1,2017-08-24T23:30:00Z,26.2168,-96.4998,4.0,8.398690374,79.57272144,9.99,'11111222,11111222,11111222' 
TABS,ioos:station:wmo:42045:1,2017-08-25T00:00:00Z,26.2168,-96.4998,4.0,8.819552143,79.08463345,10.68,'11111222,11111222,11111222' 
TABS,ioos:station:wmo:42045:1,2017-08-25T00:30:00Z,26.2168,-96.4998,4.0,9.229674967,73.50848295,10.96,'11111222,11111222,11111222' 
TABS,ioos:station:wmo:42045:1,2017-08-25T01:00:00Z,26.2168,-96.4998,4.0,9.596103376,72.65984236,11.62,'11111222,11111222,11111222' 
TABS,ioos:station:wmo:42045:1,2017-08-25T01:30:00Z,26.2168,-96.4998,4.0,11.28245541,92.69290855,13.63,'11111222,11111222,11111222' 
TABS,ioos:station:wmo:42045:1,2017-08-25T02:00:00Z,26.2168,-96.4998,4.0,9.175020436,73.34224356,10.86,'11111222,11111222,11111222' 
TABS,ioos:station:wmo:42045:1,2017-08-25T02:30:00Z,26.2168,-96.4998,4.0,10.73048927,102.6508214,13.82,'11111222,11111222,11111222' 
TABS,ioos:station:wmo:42045:1,2017-08-25T03:00:00Z,26.2168,-96.4998,4.0,11.85393184,103.2160011,14.96,'11111222,11111222,11111222' 
TABS,ioos:station:wmo:42045:1,2017-08-25T03:30:00Z,26.2168,-96.4998,4.0,10.7191231,93.42337208,12.55,'11111222,11111222,11111222' 
TABS,ioos:station:wmo:42045:1,2017-08-25T04:00:00Z,26.2168,-96.4998,4.0,11.67491756,87.10287032,15.03,'11111222,11111222,11111222' 
TABS,ioos:station:wmo:42045:1,2017-08-25T04:30:00Z,26.2168,-96.4998,4.0,10.59045797,96.12551613,12.62,'11111222,11111222,11111222' 
TABS,ioos:station:wmo:42045:1,2017-08-25T05:00:00Z,26.2168,-96.4998,4.0,10.68863415,76.19738611,12.75,'11111222,11111222,11111222' 
TABS,ioos:station:wmo:42045:1,2017-08-25T05:30:00Z,26.2168,-96.4998,4.0,12.07045981,76.97652987,14.59,'11111222,11111222,11111222' 
TABS,ioos:station:wmo:42045:1,2017-08-25T06:00:00Z,26.2168,-96.4998,4.0,11.35120258,73.2568619,13.55,'11111222,11111222,11111222' 
TABS,ioos:station:wmo:42045:1,2017-08-25T06:30:00Z,26.2168,-96.4998,4.0,11.46138299,73.16151626,14.64,'11111222,11111222,11111222' 
TABS,ioos:station:wmo:42045:1,2017-08-25T07:00:00Z,26.2168,-96.4998,4.0,10.99445769,61.47652718,13.43,'11111222,11111222,11111222' 
TABS,ioos:station:wmo:42045:1,2017-08-25T07:30:00Z,26.2168,-96.4998,4.0,12.58381898,72.32780221,15.04,'11111222,11111222,11111222' 
TABS,ioos:station:wmo:42045:1,2017-08-25T08:00:00Z,26.2168,-96.4998,4.0,14.43313549,72.0417076,17.82,'11111222,11111222,11111222' 
TABS,ioos:station:wmo:42045:1,2017-08-25T08:30:00Z,26.2168,-96.4998,4.0,13.38283229,56.89143285,16.49,'11111222,11111222,11111222' 
TABS,ioos:station:wmo:42045:1,2017-08-25T09:00:00Z,26.2168,-96.4998,4.0,14.6866504,51.16317382,17.76,'11111222,11111222,11111222' 
TABS,ioos:station:wmo:42045:1,2017-08-25T09:30:00Z,26.2168,-96.4998,4.0,13.02079107,39.20241498,15.67,'11111222,11111222,11111222' 
TABS,ioos:station:wmo:42045:1,2017-08-25T10:00:00Z,26.2168,-96.4998,4.0,13.78972444,41.73674658,18.55,'11111222,11111222,11111222' 
TABS,ioos:station:wmo:42045:1,2017-08-25T10:30:00Z,26.2168,-96.4998,4.0,15.30738711,34.86293942,18.91,'11111222,11111222,11111222' 
TABS,ioos:station:wmo:42045:1,2017-08-25T11:00:00Z,26.2168,-96.4998,4.0,17.07764035,32.07978029,21.38,'11111222,11111222,11111222' 
TABS,ioos:station:wmo:42045:1,2017-08-25T11:30:00Z,26.2168,-96.4998,4.0,16.85332608,8.90876872,21.66,'11111222,11111222,11111222' 
TABS,ioos:station:wmo:42045:1,2017-08-25T12:00:00Z,26.2168,-96.4998,4.0,17.1107364,356.0453971,21.01,'11111222,11111222,11111222' 
TABS,ioos:station:wmo:42045:1,2017-08-25T12:30:00Z,26.2168,-96.4998,4.0,18.48315179,353.9437436,23.54,'11111222,11111222,11111222' 
TABS,ioos:station:wmo:42045:1,2017-08-25T13:00:00Z,26.2168,-96.4998,4.0,18.53024555,347.3435684,23.87,'11111222,11111222,11111222' 
TABS,ioos:station:wmo:42045:1,2017-08-25T13:30:00Z,26.2168,-96.4998,4.0,18.61322379,339.1988021,23.52,'11111222,11111222,11111222' 
TABS,ioos:station:wmo:42045:1,2017-08-25T14:00:00Z,26.2168,-96.4998,4.0,18.53863533,332.6745892,25.05,'11111222,11111222,11111222' 
TABS,ioos:station:wmo:42045:1,2017-08-25T14:30:00Z,26.2168,-96.4998,4.0,18.84104562,328.7649101,23.54,'11111222,11111222,11111222' 
TABS,ioos:station:wmo:42045:1,2017-08-25T15:00:00Z,26.2168,-96.4998,4.0,17.52701058,320.068746,21.27,'11111222,11111222,11111222' 
TABS,ioos:station:wmo:42045:1,2017-08-25T15:30:00Z,26.2168,-96.4998,4.0,17.19293169,311.5338119,21.79,'11111222,11111222,11111222' 
TABS,ioos:station:wmo:42045:1,2017-08-25T16:00:00Z,26.2168,-96.4998,4.0,16.78292287,305.2240731,20.64,'11111222,11111222,11111222' 
TABS,ioos:station:wmo:42045:1,2017-08-25T16:30:00Z,26.2168,-96.4998,4.0,16.58804389,304.6863343,20.89,'11111222,11111222,11111222' 
TABS,ioos:station:wmo:42045:1,2017-08-25T17:00:00Z,26.2168,-96.4998,4.0,17.52302771,298.9052712,22.81,'11111222,11111222,11111222' 
TABS,ioos:station:wmo:42045:1,2017-08-25T17:30:00Z,26.2168,-96.4998,4.0,16.25232599,299.8934836,20.9,'11111222,11111222,11111222' 
TABS,ioos:station:wmo:42045:1,2017-08-25T18:00:00Z,26.2168,-96.4998,4.0,15.27859941,298.7121505,19.11,'11111222,11111222,11111222' 
TABS,ioos:station:wmo:42045:1,2017-08-25T18:30:00Z,26.2168,-96.4998,4.0,14.62412391,298.0194146,19.23,'11111222,11111222,11111222' 
TABS,ioos:station:wmo:42045:1,2017-08-25T19:00:00Z,26.2168,-96.4998,4.0,14.45461864,291.5952599,18.58,'11111222,11111222,11111222' 
TABS,ioos:station:wmo:42045:1,2017-08-25T19:30:00Z,26.2168,-96.4998,4.0,13.81932705,290.1920507,17.99,'11111222,11111222,11111222' 
TABS,ioos:station:wmo:42045:1,2017-08-25T20:00:00Z,26.2168,-96.4998,4.0,13.61934653,292.8560481,16.75,'11111222,11111222,11111222' 
TABS,ioos:station:wmo:42045:1,2017-08-25T20:30:00Z,26.2168,-96.4998,4.0,13.69739026,290.3797486,16.83,'11111222,11111222,11111222' 
TABS,ioos:station:wmo:42045:1,2017-08-25T21:00:00Z,26.2168,-96.4998,4.0,13.10085875,291.9637837,16.23,'11111222,11111222,11111222' 
TABS,ioos:station:wmo:42045:1,2017-08-25T21:30:00Z,26.2168,-96.4998,4.0,12.89099298,291.9086536,16.8,'11111222,11111222,11111222' 
TABS,ioos:station:wmo:42045:1,2017-08-25T22:00:00Z,26.2168,-96.4998,4.0,13.10542636,292.4752028,16.85,'11111222,11111222,11111222' 
TABS,ioos:station:wmo:42045:1,2017-08-25T22:30:00Z,26.2168,-96.4998,4.0,11.6603945,293.6630854,14.27,'11111222,11111222,11111222' 
TABS,ioos:station:wmo:42045:1,2017-08-25T23:00:00Z,26.2168,-96.4998,4.0,11.75823116,291.7651642,14.78,'11111222,11111222,11111222' 
TABS,ioos:station:wmo:42045:1,2017-08-25T23:30:00Z,26.2168,-96.4998,4.0,10.68000468,286.3138143,13.91,'11111222,11111222,11111222' 
TABS,ioos:station:wmo:42045:1,2017-08-26T00:00:00Z,26.2168,-96.4998,4.0,10.02930207,290.7298427,11.88,'11111222,11111222,11111222' 
TABS,ioos:station:wmo:42045:1,2017-08-26T00:30:00Z,26.2168,-96.4998,4.0,10.25756794,282.613598,12.36,'11111222,11111222,11111222' 
TABS,ioos:station:wmo:42045:1,2017-08-26T01:00:00Z,26.2168,-96.4998,4.0,9.497962939,281.1087865,11.98,'11111222,11111222,11111222' 
TABS,ioos:station:wmo:42045:1,2017-08-26T01:30:00Z,26.2168,-96.4998,4.0,7.902309789,280.4993739,9.64,'11111222,11111222,11111222' 
TABS,ioos:station:wmo:42045:1,2017-08-26T02:00:00Z,26.2168,-96.4998,4.0,9.281212205,270.9260343,11.32,'11111222,11111222,11111222' 
TABS,ioos:station:wmo:42045:1,2017-08-26T02:30:00Z,26.2168,-96.4998,4.0,9.828143263,272.3325454,11.97,'11111222,11111222,11111222' 
TABS,ioos:station:wmo:42045:1,2017-08-26T03:00:00Z,26.2168,-96.4998,4.0,7.930157628,269.638746,9.7,'11111222,11111222,11111222' 
TABS,ioos:station:wmo:42045:1,2017-08-26T03:30:00Z,26.2168,-96.4998,4.0,10.13359758,268.4732317,12.63,'11111222,11111222,11111222' 
TABS,ioos:station:wmo:42045:1,2017-08-26T04:00:00Z,26.2168,-96.4998,4.0,9.316576624,267.8470422,12.13,'11111222,11111222,11111222' 
TABS,ioos:station:wmo:42045:1,2017-08-26T04:30:00Z,26.2168,-96.4998,4.0,9.757745641,263.7635724,11.72,'11111222,11111222,11111222' 
TABS,ioos:station:wmo:42045:1,2017-08-26T05:00:00Z,26.2168,-96.4998,4.0,10.05240767,268.7459672,12.12,'11111222,11111222,11111222' 
TABS,ioos:station:wmo:42045:1,2017-08-26T05:30:00Z,26.2168,-96.4998,4.0,9.005775924,262.085854,11.18,'11111222,11111222,11111222' 
TABS,ioos:station:wmo:42045:1,2017-08-26T06:00:00Z,26.2168,-96.4998,4.0,8.425704718,260.0905235,10.33,'11111222,11111222,11111222' 
TABS,ioos:station:wmo:42045:1,2017-08-26T06:30:00Z,26.2168,-96.4998,4.0,8.235903108,257.8032353,10.06,'11111222,11111222,11111222' 
TABS,ioos:station:wmo:42045:1,2017-08-26T07:00:00Z,26.2168,-96.4998,4.0,7.421105039,263.9667611,8.76,'11111222,11111222,11111222' 
TABS,ioos:station:wmo:42045:1,2017-08-26T07:30:00Z,26.2168,-96.4998,4.0,8.480212261,256.9142592,10.97,'11111222,11111222,11111222' 
TABS,ioos:station:wmo:42045:1,2017-08-26T08:00:00Z,26.2168,-96.4998,4.0,7.933738085,253.0725265,9.55,'11111222,11111222,11111222' 
TABS,ioos:station:wmo:42045:1,2017-08-26T08:30:00Z,26.2168,-96.4998,4.0,10.91875451,235.1456259,13.67,'11111222,11111222,11111222' 
TABS,ioos:station:wmo:42045:1,2017-08-26T09:00:00Z,26.2168,-96.4998,4.0,11.26001776,233.2319569,13.98,'11111222,11111222,11111222' 
TABS,ioos:station:wmo:42045:1,2017-08-26T09:30:00Z,26.2168,-96.4998,4.0,6.185612338,247.8718311,8.32,'11111222,11111222,11111222' 
TABS,ioos:station:wmo:42045:1,2017-08-26T10:00:00Z,26.2168,-96.4998,4.0,7.969849434,263.5883723,9.74,'11111222,11111222,11111222' 
TABS,ioos:station:wmo:42045:1,2017-08-26T10:30:00Z,26.2168,-96.4998,4.0,8.866459271,258.8801916,11.05,'11111222,11111222,11111222' 
TABS,ioos:station:wmo:42045:1,2017-08-26T11:00:00Z,26.2168,-96.4998,4.0,9.123184751,259.8356079,11.16,'11111222,11111222,11111222' 
TABS,ioos:station:wmo:42045:1,2017-08-26T11:30:00Z,26.2168,-96.4998,4.0,9.340117772,257.8238671,11.41,'11111222,11111222,11111222' 
TABS,ioos:station:wmo:42045:1,2017-08-26T12:00:00Z,26.2168,-96.4998,4.0,9.886607103,257.4397923,12.48,'11111222,11111222,11111222' 
TABS,ioos:station:wmo:42045:1,2017-08-26T12:30:00Z,26.2168,-96.4998,4.0,10.11084566,260.0905235,12.6,'11111222,11111222,11111222' 
TABS,ioos:station:wmo:42045:1,2017-08-26T13:00:00Z,26.2168,-96.4998,4.0,8.814578833,264.9232816,10.93,'11111222,11111222,11111222' 
TABS,ioos:station:wmo:42045:1,2017-08-26T13:30:00Z,26.2168,-96.4998,4.0,8.588602913,257.9705016,10.29,'11111222,11111222,11111222' 
TABS,ioos:station:wmo:42045:1,2017-08-26T14:00:00Z,26.2168,-96.4998,4.0,8.624227502,257.8171099,10.55,'11111222,11111222,11111222' 
TABS,ioos:station:wmo:42045:1,2017-08-26T14:30:00Z,26.2168,-96.4998,4.0,7.378109514,256.3593151,8.92,'11111222,11111222,11111222' 
TABS,ioos:station:wmo:42045:1,2017-08-26T15:00:00Z,26.2168,-96.4998,4.0,7.631756023,257.8213754,9.3,'11111222,11111222,11111222' 
TABS,ioos:station:wmo:42045:1,2017-08-26T15:30:00Z,26.2168,-96.4998,4.0,7.264654156,259.3706798,8.64,'11111222,11111222,11111222' 
TABS,ioos:station:wmo:42045:1,2017-08-26T16:00:00Z,26.2168,-96.4998,4.0,6.825144687,252.5208181,8.69,'11111222,11111222,11111222' 
TABS,ioos:station:wmo:42045:1,2017-08-26T16:30:00Z,26.2168,-96.4998,4.0,7.258884212,242.6937038,8.64,'11111222,11111222,11111222' 
TABS,ioos:station:wmo:42045:1,2017-08-26T17:00:00Z,26.2168,-96.4998,4.0,7.858982122,239.9115632,9.2,'11111222,11111222,11111222' 
TABS,ioos:station:wmo:42045:1,2017-08-26T17:30:00Z,26.2168,-96.4998,4.0,7.62528688,237.2061596,9.11,'11111222,11111222,11111222' 
TABS,ioos:station:wmo:42045:1,2017-08-26T18:00:00Z,26.2168,-96.4998,4.0,7.585367493,231.4228577,8.6,'11111222,11111222,11111222' 
TABS,ioos:station:wmo:42045:1,2017-08-26T18:30:00Z,26.2168,-96.4998,4.0,7.827438917,231.4317356,9.28,'11111222,11111222,11111222' 
TABS,ioos:station:wmo:42045:1,2017-08-26T19:00:00Z,26.2168,-96.4998,4.0,7.904441789,237.8179724,9.26,'11111222,11111222,11111222' 
TABS,ioos:station:wmo:42045:1,2017-08-26T19:30:00Z,26.2168,-96.4998,4.0,8.064862057,239.9379594,10.19,'11111222,11111222,11111222' 
TABS,ioos:station:wmo:42045:1,2017-08-26T20:00:00Z,26.2168,-96.4998,4.0,8.344003835,233.1851221,10.58,'11111222,11111222,11111222' 
TABS,ioos:station:wmo:42045:1,2017-08-26T20:30:00Z,26.2168,-96.4998,4.0,8.075456643,229.8220647,10.06,'11111222,11111222,11111222' 
TABS,ioos:station:wmo:42045:1,2017-08-26T21:00:00Z,26.2168,-96.4998,4.0,8.039900497,227.4196088,9.54,'11111222,11111222,11111222' 
TABS,ioos:station:wmo:42045:1,2017-08-26T21:30:00Z,26.2168,-96.4998,4.0,7.750161289,220.0801905,9.38,'11111222,11111222,11111222' 
TABS,ioos:station:wmo:42045:1,2017-08-26T22:00:00Z,26.2168,-96.4998,4.0,7.647829758,218.6833286,9.5,'11111222,11111222,11111222' 
TABS,ioos:station:wmo:42045:1,2017-08-26T22:30:00Z,26.2168,-96.4998,4.0,7.857588689,218.0221975,9.67,'11111222,11111222,11111222' 
TABS,ioos:station:wmo:42045:1,2017-08-26T23:00:00Z,26.2168,-96.4998,4.0,8.134771048,217.6588966,9.8,'11111222,11111222,11111222' 
TABS,ioos:station:wmo:42045:1,2017-08-26T23:30:00Z,26.2168,-96.4998,4.0,8.010399491,217.442244,10.12,'11111222,11111222,11111222' 
TABS,ioos:station:wmo:42045:1,2017-08-27T00:00:00Z,26.2168,-96.4998,4.0,7.665957214,213.66947,9.3,'11111222,11111222,11111222' 
TABS,ioos:station:wmo:42045:1,2017-08-27T00:30:00Z,26.2168,-96.4998,4.0,7.958800161,212.5320623,9.39,'11111222,11111222,11111222' 
TABS,ioos:station:wmo:42045:1,2017-08-27T01:00:00Z,26.2168,-96.4998,4.0,7.407374704,209.6107058,8.95,'11111222,11111222,11111222' 
TABS,ioos:station:wmo:42045:1,2017-08-27T01:30:00Z,26.2168,-96.4998,4.0,7.812323598,212.3475783,9.93,'11111222,11111222,11111222' 
TABS,ioos:station:wmo:42045:1,2017-08-27T02:00:00Z,26.2168,-96.4998,4.0,7.481744449,212.5006941,9.33,'11111222,11111222,11111222' 
TABS,ioos:station:wmo:42045:1,2017-08-27T02:30:00Z,26.2168,-96.4998,4.0,7.741227293,209.3135458,9.6,'11111222,11111222,11111222' 
TABS,ioos:station:wmo:42045:1,2017-08-27T03:00:00Z,26.2168,-96.4998,4.0,7.04355734,210.6430312,8.34,'11111222,11111222,11111222' 
TABS,ioos:station:wmo:42045:1,2017-08-27T03:30:00Z,26.2168,-96.4998,4.0,6.673290043,219.8936326,8.15,'11111222,11111222,11111222' 
TABS,ioos:station:wmo:42045:1,2017-08-27T04:00:00Z,26.2168,-96.4998,4.0,5.304498091,242.6137974,6.44,'11111222,11111222,11111222' 
TABS,ioos:station:wmo:42045:1,2017-08-27T04:30:00Z,26.2168,-96.4998,4.0,6.099745896,237.2479189,7.6,'11111222,11111222,11111222' 
TABS,ioos:station:wmo:42045:1,2017-08-27T05:00:00Z,26.2168,-96.4998,4.0,5.946402274,236.1763929,7.03,'11111222,11111222,11111222' 
TABS,ioos:station:wmo:42045:1,2017-08-27T05:30:00Z,26.2168,-96.4998,4.0,6.481805304,235.9422651,8.05,'11111222,11111222,11111222' 
TABS,ioos:station:wmo:42045:1,2017-08-27T06:00:00Z,26.2168,-96.4998,4.0,6.582598271,235.2718978,8.17,'11111222,11111222,11111222' 
TABS,ioos:station:wmo:42045:1,2017-08-27T06:30:00Z,26.2168,-96.4998,4.0,7.386704272,233.921386,8.62,'11111222,11111222,11111222' 
TABS,ioos:station:wmo:42045:1,2017-08-27T07:00:00Z,26.2168,-96.4998,4.0,7.78163222,237.596649,9.63,'11111222,11111222,11111222' 
TABS,ioos:station:wmo:42045:1,2017-08-27T07:30:00Z,26.2168,-96.4998,4.0,6.952330545,258.8032305,8.2,'11111222,11111222,11111222' 
TABS,ioos:station:wmo:42045:1,2017-08-27T08:00:00Z,26.2168,-96.4998,4.0,8.98042872,305.0703396,13.09,'11111222,11111222,11111222' 
TABS,ioos:station:wmo:42045:1,2017-08-27T08:30:00Z,26.2168,-96.4998,4.0,7.540503962,257.4382552,9.7,'11111222,11111222,11111222' 
TABS,ioos:station:wmo:42045:1,2017-08-27T09:00:00Z,26.2168,-96.4998,4.0,11.5450812,233.9143316,14.41,'11111222,11111222,11111222' 
TABS,ioos:station:wmo:42045:1,2017-08-27T09:30:00Z,26.2168,-96.4998,4.0,10.26124749,227.2907099,12.17,'11111222,11111222,11111222' 
TABS,ioos:station:wmo:42045:1,2017-08-27T10:00:00Z,26.2168,-96.4998,4.0,9.50555627,232.0933856,10.9,'11111222,11111222,11111222' 
TABS,ioos:station:wmo:42045:1,2017-08-27T10:30:00Z,26.2168,-96.4998,4.0,9.843988013,240.8832782,11.82,'11111222,11111222,11111222' 
TABS,ioos:station:wmo:42045:1,2017-08-27T11:00:00Z,26.2168,-96.4998,4.0,9.241888335,245.6535875,11.04,'11111222,11111222,11111222' 
TABS,ioos:station:wmo:42045:1,2017-08-27T11:30:00Z,26.2168,-96.4998,4.0,9.442414945,253.6378925,11.38,'11111222,11111222,11111222' 
TABS,ioos:station:wmo:42045:1,2017-08-27T12:00:00Z,26.2168,-96.4998,4.0,9.050508273,261.0372678,10.74,'11111222,11111222,11111222' 
TABS,ioos:station:wmo:42045:1,2017-08-27T12:30:00Z,26.2168,-96.4998,4.0,8.460691461,265.1182691,10.83,'11111222,11111222,11111222' 
TABS,ioos:station:wmo:42045:1,2017-08-27T13:00:00Z,26.2168,-96.4998,4.0,8.925032213,264.921825,10.88,'11111222,11111222,11111222' 
TABS,ioos:station:wmo:42045:1,2017-08-27T13:30:00Z,26.2168,-96.4998,4.0,8.985766523,274.3400106,10.87,'11111222,11111222,11111222' 
TABS,ioos:station:wmo:42045:1,2017-08-27T14:00:00Z,26.2168,-96.4998,4.0,9.498968365,273.6214762,11.98,'11111222,11111222,11111222' 
TABS,ioos:station:wmo:42045:1,2017-08-27T14:30:00Z,26.2168,-96.4998,4.0,8.720120412,272.7606826,10.59,'11111222,11111222,11111222' 
TABS,ioos:station:wmo:42045:1,2017-08-27T15:00:00Z,26.2168,-96.4998,4.0,8.591961359,276.8851319,10.04,'11111222,11111222,11111222' 
TABS,ioos:station:wmo:42045:1,2017-08-27T15:30:00Z,26.2168,-96.4998,4.0,7.856436851,276.8717209,9.59,'11111222,11111222,11111222' 
TABS,ioos:station:wmo:42045:1,2017-08-27T16:00:00Z,26.2168,-96.4998,4.0,7.546601884,278.688419,9.16,'11111222,11111222,11111222' 
TABS,ioos:station:wmo:42045:1,2017-08-27T16:30:00Z,26.2168,-96.4998,4.0,7.086959856,266.0353545,8.87,'11111222,11111222,11111222' 
TABS,ioos:station:wmo:42045:1,2017-08-27T17:00:00Z,26.2168,-96.4998,4.0,7.154355317,258.8785658,8.78,'11111222,11111222,11111222' 
TABS,ioos:station:wmo:42045:1,2017-08-27T17:30:00Z,26.2168,-96.4998,4.0,6.602378359,262.7781263,8.05,'11111222,11111222,11111222' 
TABS,ioos:station:wmo:42045:1,2017-08-27T18:00:00Z,26.2168,-96.4998,4.0,6.25991214,256.2301756,7.58,'11111222,11111222,11111222' 
TABS,ioos:station:wmo:42045:1,2017-08-27T18:30:00Z,26.2168,-96.4998,4.0,6.874445432,248.1367337,8.13,'11111222,11111222,11111222' 
TABS,ioos:station:wmo:42045:1,2017-08-27T19:00:00Z,26.2168,-96.4998,4.0,7.078679255,238.1062284,8.48,'11111222,11111222,11111222' 
TABS,ioos:station:wmo:42045:1,2017-08-27T19:30:00Z,26.2168,-96.4998,4.0,6.997092253,234.8336462,8.22,'11111222,11111222,11111222' 
TABS,ioos:station:wmo:42045:1,2017-08-27T20:00:00Z,26.2168,-96.4998,4.0,7.45,236.8859347,8.75,'11111222,11111222,11111222' 
TABS,ioos:station:wmo:42045:1,2017-08-27T20:30:00Z,26.2168,-96.4998,4.0,7.319296414,240.1775125,8.73,'11111222,11111222,11111222' 
TABS,ioos:station:wmo:42045:1,2017-08-27T21:00:00Z,26.2168,-96.4998,4.0,6.441816514,248.4133546,8.52,'11111222,11111222,11111222' 
TABS,ioos:station:wmo:42045:1,2017-08-27T21:30:00Z,26.2168,-96.4998,4.0,6.02137858,250.9030942,7.26,'11111222,11111222,11111222' 
TABS,ioos:station:wmo:42045:1,2017-08-27T22:00:00Z,26.2168,-96.4998,4.0,4.804851715,258.5965501,6.15,'11111222,11111222,11111222' 
TABS,ioos:station:wmo:42045:1,2017-08-27T22:30:00Z,26.2168,-96.4998,4.0,4.614108798,246.7688538,5.39,'11111222,11111222,11111222' 
TABS,ioos:station:wmo:42045:1,2017-08-27T23:00:00Z,26.2168,-96.4998,4.0,4.676804465,241.2429463,5.45,'11111222,11111222,11111222' 
TABS,ioos:station:wmo:42045:1,2017-08-27T23:30:00Z,26.2168,-96.4998,4.0,3.87001292,245.0904936,5.05,'11111222,11111222,11111222' 
TABS,ioos:station:wmo:42045:1,2017-08-28T00:00:00Z,26.2168,-96.4998,4.0,4.920508104,251.638739,5.55,'11111222,11111222,11111222' 
TABS,ioos:station:wmo:42045:1,2017-08-28T00:30:00Z,26.2168,-96.4998,4.0,4.667343998,260.2551594,6.37,'11111222,11111222,11111222' 
TABS,ioos:station:wmo:42045:1,2017-08-28T01:00:00Z,26.2168,-96.4998,4.0,5.411330705,259.4584201,6.45,'11111222,11111222,11111222' 
TABS,ioos:station:wmo:42045:1,2017-08-28T01:30:00Z,26.2168,-96.4998,4.0,6.064231196,250.0411565,7.01,'11111222,11111222,11111222' 
TABS,ioos:station:wmo:42045:1,2017-08-28T02:00:00Z,26.2168,-96.4998,4.0,5.753607564,255.0942763,6.86,'11111222,11111222,11111222' 
TABS,ioos:station:wmo:42045:1,2017-08-28T02:30:00Z,26.2168,-96.4998,4.0,7.643225759,338.2680321,9.83,'11111222,11111222,11111222' 
TABS,ioos:station:wmo:42045:1,2017-08-28T03:00:00Z,26.2168,-96.4998,4.0,6.692480855,338.3415109,8.29,'11111222,11111222,11111222' 
TABS,ioos:station:wmo:42045:1,2017-08-28T03:30:00Z,26.2168,-96.4998,4.0,5.958363869,325.3229622,7.36,'11111222,11111222,11111222' 
TABS,ioos:station:wmo:42045:1,2017-08-28T04:00:00Z,26.2168,-96.4998,4.0,6.599045386,327.2489895,8.54,'11111222,11111222,11111222' 